Home > Weather > Meissen > Past weeks

Flag for Germany Past Weather in Meissen, Saxony, Germany — Yesterday and Last 2 Weeks

Now
68 °F

Clear.


Feels Like: 68 °F
Forecast: 63 / 87 °F
Wind: 12 mph from Southeast

Location: Dresden-Klotzsche

Current Time: Aug 26, 2016 at 7:24:18 AM

Latest Report: Aug 26, 2016 at 6:50 AM


Visibility: 10 mi

Pressure: 30.09 "Hg

Humidity: 60%

Dew Point: 54 °F

Location of MeissenLocation

Past Weather in Meissen — Graph

°F

Meissen Temperature Yesterday

Maximum temperature yesterday: 81 °F (at 2:50 PM)
Minimum temperature yesterday: 61 °F (at 1:20 AM)
Average temperature yesterday: 71 °F

High & Low Weather Summary for the Past Weeks

 TemperatureHumidityPressure
High81 °F (Aug 20, 4:50 PM)100% (Aug 12, 6:50 PM)30.36 "Hg (Aug 12, 6:50 PM)
Low46 °F (Aug 11, 6:20 AM)30% (Aug 19, 3:50 PM)29.80 "Hg (Aug 18, 3:50 PM)
Average64 °F71%30.12 "Hg
* Reported Aug 11 6:20 AM — Aug 26 6:20 AM, Meissen, Weather by CustomWeather, © 2016

Note: Actual official high and low records may vary slightly from our data, if they occured in-between our weather recording intervals... More about our weather records

Advertising

Meissen Weather History for the Previous 24 Hours

Scroll right to see more
 ConditionsComfort  
Time TempWeatherWind HumidityBarometerVisibility
6:20 AM
Fri, Aug 26
66 °FClear.10 mph64%30.09 "Hg10 mi
5:50 AM66 °FClear.13 mph64%30.07 "Hg10 mi
5:20 AM66 °FClear.10 mph64%30.07 "Hg10 mi
4:50 AM66 °FClear.12 mph64%30.09 "Hg10 mi
4:20 AM66 °FClear.14 mph64%30.09 "Hg10 mi
3:50 AM68 °FClear.15 mph60%30.09 "Hg10 mi
3:20 AM68 °FClear.14 mph60%30.09 "Hg10 mi
2:50 AM68 °FClear.13 mph60%30.09 "Hg10 mi
2:20 AM68 °FClear.12 mph56%30.09 "Hg10 mi
1:50 AM68 °FClear.12 mph60%30.09 "Hg10 mi
1:20 AM68 °FClear.12 mph60%30.09 "Hg10 mi
12:50 AM68 °FClear.10 mph56%30.09 "Hg10 mi
12:20 AM68 °FClear.7 mph56%30.09 "Hg10 mi
11:50 PM
Thu, Aug 25
66 °FClear.3 mph60%30.12 "Hg10 mi
11:20 PM68 °FClear.5 mph60%30.12 "Hg10 mi
10:50 PM68 °FClear.2 mph60%30.12 "Hg10 mi
10:20 PM68 °FClear.3 mph64%30.12 "Hg10 mi
9:50 PM68 °FClear.5 mph60%30.12 "Hg10 mi
9:20 PM72 °FClear.6 mph53%30.12 "Hg10 mi
8:50 PM73 °FSunny.5 mph47%30.12 "Hg10 mi
8:20 PM75 °FSunny.6 mph44%30.12 "Hg10 mi
7:50 PM75 °FSunny.6 mph47%30.12 "Hg10 mi
7:20 PM79 °FPassing clouds.6 mph42%30.12 "HgN/A
6:50 PM79 °FSunny.8 mph42%30.12 "Hg10 mi
6:20 PM81 °FSunny.9 mph37%30.12 "Hg10 mi
5:50 PM81 °FSunny.12 mph37%30.15 "Hg10 mi
5:20 PM81 °FPassing clouds.10 mph39%30.15 "HgN/A
4:50 PM81 °FPassing clouds.12 mph45%30.15 "HgN/A
4:20 PM81 °FSunny.12 mph45%30.18 "Hg10 mi
3:50 PM81 °FPassing clouds.10 mph48%30.18 "HgN/A
3:20 PM81 °FPassing clouds.10 mph48%30.18 "HgN/A
2:50 PM81 °FSunny.9 mph45%30.18 "Hg10 mi
2:20 PM79 °FPassing clouds.13 mph48%30.18 "HgN/A
1:50 PM79 °FPassing clouds.10 mph48%30.18 "HgN/A
1:20 PM79 °FPassing clouds.12 mph48%30.18 "HgN/A
12:50 PM77 °FPassing clouds.13 mph51%30.18 "HgN/A
12:20 PM77 °FPassing clouds.14 mph51%30.18 "HgN/A
11:50 AM77 °FPassing clouds.10 mph51%30.21 "HgN/A
11:20 AM77 °FPassing clouds.9 mph54%30.21 "HgN/A
10:50 AM73 °FPassing clouds.9 mph57%30.21 "HgN/A
10:20 AM72 °FSunny.9 mph61%30.21 "Hg10 mi
9:50 AM72 °FPassing clouds.7 mph61%30.21 "HgN/A
9:20 AM70 °FSunny.8 mph69%30.21 "Hg10 mi
8:50 AM68 °FSunny.9 mph69%30.21 "Hg10 mi
8:20 AM66 °FSunny.9 mph73%30.21 "Hg10 mi
7:50 AM66 °FSunny.12 mph73%30.21 "Hg10 mi
7:20 AM64 °FSunny.9 mph73%30.21 "Hg10 mi
Weather by CustomWeather, © 2016

See weather overviewHow to use our weather pages